Location: Croisilles
(50.1998°N, 2.8793°E)
Time: 12:35:31
(UTC+00:00)

IRS-1C Rocket - Pass Details

Date: 21 January 2021
Orbit: 801 x 805 km, 99.0° (Epoch: 26 February)

Event Time Altitude Azimuth Distance (km) Brightness Sun altitude
Rises 17:23:31 0° 144° (SE) 3,302 7.1 -9.4°
Reaches altitude 10° 17:25:55 10° 139° (SE) 2,375 6.3 -9.8°
Maximum altitude 17:30:55 47° 66° (ENE) 1,053 4.3 -10.6°
Drops below altitude 10° 17:35:57 10° 354° (N) 2,390 6.4 -11.3°
Sets 17:38:21 0° 349° (N) 3,325 7.2 -11.7°
